Home   Weather   St Helens   Past weeks

Flag for United Kingdom Past Weather in St Helens, England, United Kingdom — Yesterday and Last 2 Weeks

Now
63 °F

Scattered clouds.


Feels Like: 63 °F
Forecast: 50 / 57 °F
Wind: 16 mph from Southwest

Location: Liverpool Airport

Current Time: Sep 25, 2016 at 1:17:15 PM

Latest Report: Sep 25, 2016 at 12:20 PM


Visibility: N/A

Pressure: 29.86 "Hg

Humidity: 59%

Dew Point: 48 °F

Location of St HelensLocation

Past Weather in St Helens — Graph

°F

St Helens Temperature Yesterday

Maximum temperature yesterday: 66 °F (at 2:50 PM)
Minimum temperature yesterday: 54 °F (at 1:20 AM)
Average temperature yesterday: 61 °F

High & Low Weather Summary for the Past Weeks

 TemperatureHumidityPressure
High79 °F (Sep 14, 4:50 PM)100% (Sep 13, 6:20 PM)30.24 "Hg (Sep 13, 6:20 PM)
Low48 °F (Sep 18, 5:20 AM)49% (Sep 11, 1:50 PM)29.65 "Hg (Sep 25, 2:20 AM)
Average60 °F80%29.98 "Hg
* Reported Sep 10 12:20 PM — Sep 25 12:20 PM, St Helens, Weather by CustomWeather, © 2016

Note: Actual official high and low records may vary slightly from our data, if they occured in-between our weather recording intervals... More about our weather records

Advertising

St Helens Weather History for the Previous 24 Hours

Scroll right to see more
 ConditionsComfort  
Time TempWeatherWind HumidityBarometerVisibility
12:20 PM
Sun, Sep 25
63 °FScattered clouds.16 mph59%29.86 "HgN/A
11:50 AM61 °FScattered clouds.15 mph63%29.83 "HgN/A
11:20 AM59 °FPassing clouds.14 mph72%29.83 "HgN/A
10:50 AM59 °FScattered showers. Passing clouds.15 mph77%29.83 "HgN/A
10:20 AM57 °FScattered showers. Scattered clouds.14 mph77%29.80 "HgN/A
9:50 AM57 °FScattered clouds.9 mph82%29.80 "HgN/A
9:20 AM59 °FPassing clouds.10 mph72%29.77 "HgN/A
8:50 AM57 °FPassing clouds.15 mph77%29.74 "HgN/A
8:20 AM57 °FPassing clouds.14 mph88%29.74 "HgN/A
7:50 AM57 °FScattered showers. Scattered clouds.12 mph88%29.74 "HgN/A
7:20 AM57 °FScattered clouds.13 mph88%29.74 "HgN/A
6:50 AM57 °FPassing clouds.6 mph88%29.71 "HgN/A
6:20 AM57 °FPassing clouds.8 mph94%29.71 "HgN/A
5:50 AM57 °FScattered showers. Passing clouds.10 mph94%29.71 "HgN/A
5:20 AM57 °FLight rain. Passing clouds.6 mph94%29.68 "Hg5 mi
4:50 AM57 °FLight rain. Passing clouds.7 mph94%29.68 "Hg5 mi
4:20 AM59 °FLight rain. Passing clouds.5 mph94%29.68 "Hg5 mi
3:50 AM59 °FLight rain. Passing clouds.3 mph94%29.68 "Hg5 mi
3:20 AM59 °FLight rain. Passing clouds.6 mph94%29.68 "HgN/A
2:50 AM59 °FPassing clouds.6 mph100%29.68 "HgN/A
2:20 AM61 °FLight rain. Passing clouds.3 mph94%29.65 "HgN/A
1:50 AM59 °FLight rain. Partly cloudy.7 mph94%29.68 "HgN/A
1:20 AM59 °FRain. Partly cloudy.15 mph94%29.68 "Hg5 mi
12:50 AM63 °FLight rain. Passing clouds.9 mph88%29.68 "HgN/A
12:20 AM63 °FScattered showers. Passing clouds.8 mph88%29.68 "HgN/A
11:50 PM
Sat, Sep 24
63 °FLight rain. Passing clouds.7 mph88%29.68 "HgN/A
11:20 PM63 °FPassing clouds.8 mph83%29.71 "HgN/A
10:50 PM63 °FPassing clouds.9 mph83%29.71 "HgN/A
10:20 PM64 °FPassing clouds.9 mph78%29.74 "HgN/A
9:50 PM64 °FPartly cloudy.12 mph78%29.71 "HgN/A
9:20 PM64 °FPartly cloudy.12 mph73%29.71 "HgN/A
8:50 PM64 °FPartly cloudy.10 mph73%29.74 "HgN/A
8:20 PM64 °FPartly cloudy.12 mph73%29.74 "HgN/A
7:50 PM64 °FPartly cloudy.9 mph73%29.74 "HgN/A
7:20 PM64 °FPartly cloudy.10 mph73%29.74 "HgN/A
6:50 PM64 °FScattered clouds.9 mph73%29.74 "HgN/A
6:20 PM66 °FPassing clouds.8 mph68%29.74 "HgN/A
5:50 PM66 °FPassing clouds.9 mph68%29.74 "HgN/A
5:20 PM66 °FPassing clouds.9 mph68%29.74 "HgN/A
4:50 PM66 °FPassing clouds.10 mph68%29.77 "HgN/A
4:20 PM66 °FPassing clouds.10 mph68%29.77 "HgN/A
3:50 PM66 °FPassing clouds.13 mph68%29.80 "HgN/A
3:20 PM66 °FScattered clouds.15 mph64%29.80 "HgN/A
2:50 PM66 °FScattered clouds.13 mph64%29.80 "HgN/A
2:20 PM64 °FPassing clouds.10 mph68%29.80 "HgN/A
1:50 PM64 °FPassing clouds.17 mph73%29.83 "HgN/A
1:20 PM64 °FPassing clouds.15 mph68%29.83 "HgN/A
Weather by CustomWeather, © 2016

See weather overviewHow to use our weather pages